Regional Weather Roundup
Issued by NWS

Home | Current Version | Previous Version | Text Only | Print | Product List | Glossary Off
Versions: 1 2 3 4 5 6 7 8 9 10 11 12 13 14 15 16 17 18 19 20 21 22 23 24 25 26 27 28 29 30 31 32 33 34 35 36 37 38 39 40 41 42 43 44 45 46 47 48 49 50

000
ASUS45 KTFX 031010
RWRMT
MONTANA REGIONAL WEATHER ROUNDUP
NATIONAL WEATHER SERVICE GREAT FALLS MT
400 AM MDT MON AUG 03 2015

NOTE: "FAIR" INDICATES FEW OR NO CLOUDS BELOW 12000 FEET WITH NO
SIGNIFICANT WEATHER AND/OR OBSTRUCTIONS TO VISIBILITY.

MTZ001>007-043-031100-
WEST OF THE DIVIDE

CITY           SKY/WX    TMP DP  RH WIND       PRES   REMARKS
KALISPELL      SUNNY     52  40  63 CALM      29.88R
MISSOULA       MOCLDY    60  35  39 CALM      29.91S
BUTTE          PTCLDY    53  37  54 SW3       30.07S
MULLAN PASS    PTCLDY    72  19  13 SE3       30.08F
DEER LODGE       N/A     54  39  58 CALM      30.05S
EUREKA           N/A     57  34  41 CALM      29.87S
HAMILTON         N/A     57  41  54 S2        29.93R
LIBBY            N/A     55  30  38 CALM      29.87S
PLAINS           N/A     56  42  59 CALM      29.89S
RONAN            N/A     56  42  59 CALM      29.94S
THOMPSON FALLS   N/A     55  35  46 NE1       29.92S
$$

MTZ008-052>055-031100-
SOUTHWEST MONTANA

CITY           SKY/WX    TMP DP  RH WIND       PRES   REMARKS
BOZEMAN        PTCLDY    55  44  66 CALM      30.01R
DILLON         PTCLDY    53  37  54 CALM      30.02S
W YELLOWSTONE  PTCLDY    43  37  81 CALM      30.15S
THREE FORKS      N/A     51  24  35 CALM      29.99S
TWIN BRIDGES     N/A     56  37  48 SE1       30.01S
$$

MTZ009-010-012-014-046-048-049-054-031100-
EAST SLOPES AND CENTRAL MONTANA

CITY           SKY/WX    TMP DP  RH WIND       PRES   REMARKS
CUT BANK       CLEAR     59  48  67 E8        29.97S
GREAT FALLS    CLEAR     58  45  62 CALM      29.94S
MALMSTROM AFB  CLEAR     62  48  60 E2        29.94S
HELENA         PTCLDY    65  42  43 CALM      29.96S
CONRAD           N/A     48  47  97 CALM      29.99S
$$

MTZ011-013-016-021-045-047-050-051-031100-
NORTH CENTRAL MONTANA

CITY           SKY/WX    TMP DP  RH WIND       PRES   REMARKS
HAVRE          CLEAR     60  52  74 E14       29.93F
LEWISTOWN      CLEAR     63  47  55 E12       30.02S
CHINOOK          N/A     59  52  77 E9        29.97S
$$

MTZ017>020-022>027-061-062-031100-
NORTHEAST MONTANA

CITY           SKY/WX    TMP DP  RH WIND       PRES   REMARKS
GLASGOW        CLEAR     59  48  67 E10       30.02S
JORDAN           N/A     58  46  64 E5        30.02S
SIDNEY         CLEAR     54  46  76 W5        30.03R
WOLF POINT     CLEAR     53  47  79 E5        30.02F
MALTA            N/A     61  47  59 NE1       29.98S
PLENTYWOOD       N/A     55  48  76 CALM      30.04S
POPLAR           N/A     52  48  87 NW6       30.03S
SCOBEY           N/A     52  45  77 CALM      30.03S
$$

MTZ028>42-056>058-031100-
SOUTHCENTRAL AND SOUTHEAST MONTANA

CITY           SKY/WX    TMP DP  RH WIND       PRES   REMARKS
BAKER          CLEAR     55  46  71 SE5       30.05S
BILLINGS       PTCLDY    64  45  49 N9        30.00S
LIVINGSTON     PTCLDY    65  40  39 CALM      30.04R
MILES CITY     CLEAR     61  47  59 NE10      30.00S
EKALAKA          N/A     63  45  51 SE10      30.02F
FORSYTH          N/A     61  46  59 E3        29.99S
LAUREL           N/A     62  41  46 CALM      29.99R
ROUNDUP          N/A     60  44  55 CALM      29.93S
$$

REGIONAL REPORTS...DAKOTAS

CITY           SKY/WX    TMP DP  RH WIND       PRES   REMARKS
WILLISTON      CLEAR     55  49  80 CALM      30.03S
MINOT          CLEAR     54  48  80 W8        29.99S
DICKINSON      CLEAR     52  47  83 W5        30.03S
BEACH          FAIR      48  48 100 CALM      30.06R
CROSBY         FAIR      48  48 100 SW3       30.03S
BISMARCK       CLEAR     51  50  96 CALM      30.00S
GRAND FORKS    CLEAR     49  47  93 W8        29.89R
FARGO          CLEAR     52  47  83 W3        29.91R
BUFFALO SD       N/A     59  48  67 E7        29.98S
RAPID CITY     CLEAR     57  52  83 CALM      30.03S
$$

REGIONAL REPORTS...WYOMING/IDAHO/WASHINGTON

CITY           SKY/WX    TMP DP  RH WIND       PRES   REMARKS
GILLETTE       PTCLDY    55  48  77 SW3       30.06R
SHERIDAN       CLEAR     55  45  68 S3        30.02S
BUFFALO WY     CLEAR     65  44  46 SW5       30.08S
CODY           PTCLDY    66  41  39 W5        30.07S
YELLOWSTONE LA   N/A     45  36  70 CALM      30.26R
IDAHO FALLS    MOCLDY    53  46  77 N3        29.98R
SALMON         PTCLDY    55  43  62 CALM      29.92S
BOISE          MOCLDY    79  50  36 N9        29.85R
SPOKANE        PTCLDY    72  28  19 SE7       29.81R
$$

REGIONAL REPORTS...ALBERTA

CITY           SKY/WX    TMP DP  RH WIND       PRES   REMARKS
EDMONTON       MOCLDY    61  54  77 E7        29.91F
CALGARY        MOCLDY    63  50  63 SE8       29.92F
LETHBRIDGE     CLEAR     54  48  82 CALM      29.91S
MEDICINE HAT   CLEAR     63  54  72 N3        29.93S
CARDSTON         N/A     54  45  71 S2          N/A
ONEFOUR          N/A     59  50  72 E14         N/A
$$

REGIONAL REPORTS...SASKATCHEWAN

CITY           SKY/WX    TMP DP  RH WIND       PRES   REMARKS
SWIFT CURRENT  CLEAR     54  50  87 S9        30.02S
REGINA         CLEAR     50  48  93 W2        30.02S
SASKATOON      PTCLDY    52  52 100 VRB2      30.02S
CYPRESS HILLS    N/A     55  46  71 SE7         N/A
VAL MARIE        N/A     50  46  87 NE3         N/A
ROCKGLEN         N/A     55  50  82 SE3         N/A
ASSINIBOIA       N/A     61  54  77 W3          N/A
$$



USA.gov is the U.S. government's official web portal to all federal, state and local government web resources and services.